Location: Tamazert
(32.6352°N, 5.2072°W)
Time: 12:17:24
(UTC+00:00)

Transit 2A Rocket - Visible Passes

Search period start: 05 October 2022 00:00
Search period end: 15 October 2022 00:00
Orbit: 593 x 908 km, 66.7° (Epoch: 05 October)

Date Brightness Start Highest point End Pass type
(mag) Time Alt. Az. Time Alt. Az. Time Alt. Az.
05 Oct 7.2 03:59:31 10° SSE 04:02:15 16° ESE 04:04:56 10° ENE visible
05 Oct 5.2 05:40:30 10° SW 05:44:26 33° WNW 05:48:19 10° N visible
06 Oct 4.4 04:58:51 23° SW 05:01:29 69° WNW 05:05:46 10° NNE visible
07 Oct 5.0 04:18:19 52° SE 04:18:38 54° ESE 04:22:50 10° NE visible
08 Oct 7.0 03:37:33 20° ENE 03:37:33 20° ENE 03:39:25 10° NE visible
08 Oct 5.7 05:17:29 21° WNW 05:18:16 22° WNW 05:21:39 10° N visible
09 Oct 5.5 04:36:32 33° NNW 04:36:32 33° NNW 04:39:22 10° NNE visible
10 Oct 6.8 03:55:26 19° NNE 03:55:26 19° NNE 03:56:40 10° NNE visible
11 Oct 6.8 04:54:07 12° NNW 04:54:07 12° NNW 04:54:41 10° NNW visible
